Location: Pl�tzky
(52.0521°N, 11.8020°E)
Time: 22:14:17
(UTC+00:00)

Cosmos 2279 Rocket - Pass Details

Date: 22 November 2019
Orbit: 964 x 979 km, 82.9° (Epoch: 05 December)

Event Time Altitude Azimuth Distance (km) Brightness Sun altitude
Rises 16:54:04 0° 353° (N) 3,672 7.0 -15.1°
Reaches altitude 10° 16:56:49 10° 1° (N) 2,724 6.2 -15.5°
Maximum altitude 17:02:33 37° 68° (ENE) 1,471 4.4 -16.3°
Drops below altitude 10° 17:08:16 10° 135° (SE) 2,717 6.0 -17.2°
Sets 17:10:59 0° 144° (SE) 3,663 6.8 -17.6°
